Billund, Denmark

12:55 AM CEST on May 26, 2017 (GMT +0200)
Billund

Weather History for EKBI - November, 2013

Change the Weather History Date:

Sunday, November 17, 2013

  Actual Average Record
Temperature  
Mean Temperature 41 °F -  
Max Temperature 50 °F 40 °F 53 °F (2006)
Min Temperature 32 °F 31 °F 23 °F (2005)
Degree Days  
Heating Degree Days 24    
Moisture  
Dew Point 38 °F    
Average Humidity 89    
Maximum Humidity 100    
Minimum Humidity 66    
Precipitation  
Precipitation 0.00 in - - ()
Sea Level Pressure  
Sea Level Pressure 30.21 in    
Wind  
Wind Speed 6 mph ()    
Max Wind Speed 13 mph    
Max Gust Speed -    
Visibility 6.1 miles    
Events Fog    
Averages and records for this station are not official NWS values.
T = Trace of Precipitation, MM = Missing Value Source: Averaged Metar Reports

Daily Weather History Graph

Daily Weather History Graph

Search for Another Location

Airport or City:

Trip Planner

Search our weather history database for the weather conditions in past years. The results will help you decide how hot, cold, wet, or windy it might be!

Date:

Astronomy

Nov. 17, 2013 Rise Set
Actual Time 8:02 AM CET 4:13 PM CET
Civil Twilight 7:20 AM CET 4:55 PM CET
Nautical Twilight 6:34 AM CET 5:41 PM CET
Astronomical Twilight 5:51 AM CET 6:24 PM CET
Moon 4:20 PM CET (11/17) 7:37 AM CET (11/17)
Length of Visible Light 9h 35m
Length of Day
8h 10m
Full, 100% of the Moon is Illuminated
Nov 17
Full
Nov 17
Full
Nov 25
Last Quarter
Dec 3
New
Dec 9
First Quarter

Hourly Weather History & Observations

Time (CET) Temp. Windchill Dew Point Humidity Pressure Visibility Wind Dir Wind Speed Gust Speed Precip Events Conditions
12:20 AM 48.2 °F - 44.6 °F 87% 30.15 in 6.2 mi West 12.7 mph - N/A   Mostly Cloudy
12:50 AM 48.2 °F - 44.6 °F 87% 30.15 in 6.2 mi West 11.5 mph - N/A   Mostly Cloudy
1:20 AM 48.2 °F - 46.4 °F 93% 30.15 in 6.2 mi West 11.5 mph - N/A   Mostly Cloudy
1:50 AM 48.2 °F - 46.4 °F 93% 30.15 in 6.2 mi West 12.7 mph - N/A   Mostly Cloudy
2:20 AM 50.0 °F - 46.4 °F 87% 30.15 in 6.2 mi West 12.7 mph - N/A   Mostly Cloudy
2:50 AM 50.0 °F - 46.4 °F 87% 30.15 in 6.2 mi WNW 11.5 mph - N/A   Mostly Cloudy
4:20 AM 48.2 °F - 46.4 °F 93% 30.18 in 6.2 mi West 9.2 mph - N/A   Mostly Cloudy
4:50 AM 46.4 °F 42.9 °F 44.6 °F 93% 30.18 in 6.2 mi West 6.9 mph - N/A   Mostly Cloudy
5:20 AM 44.6 °F 41.4 °F 42.8 °F 93% 30.18 in 6.2 mi West 5.8 mph - N/A   Mostly Cloudy
5:50 AM 41.0 °F 36.4 °F 41.0 °F 100% 30.18 in 6.2 mi West 6.9 mph - N/A   Mostly Cloudy
6:20 AM 41.0 °F 36.4 °F 41.0 °F 100% 30.21 in - West 6.9 mph - N/A   Clear
6:50 AM 41.0 °F 37.1 °F 39.2 °F 93% 30.21 in - West 5.8 mph - N/A   Clear
7:20 AM 39.2 °F 35.0 °F 37.4 °F 93% 30.21 in 5.6 mi West 5.8 mph - N/A   Unknown
7:50 AM 39.2 °F 35.0 °F 37.4 °F 93% 30.24 in 5.6 mi West 5.8 mph - N/A   Unknown
8:20 AM 39.2 °F 35.0 °F 39.2 °F 100% 30.24 in 6.2 mi WNW 5.8 mph - N/A   Partly Cloudy
8:50 AM 39.2 °F - 39.2 °F 100% 30.24 in - West 2.3 mph - N/A   Clear
9:20 AM 39.2 °F 35.9 °F 39.2 °F 100% 30.27 in - West 4.6 mph - N/A   Clear
9:50 AM 41.0 °F 38.0 °F 41.0 °F 100% 30.27 in - WSW 4.6 mph - N/A   Clear
10:20 AM 42.8 °F 40.1 °F 41.0 °F 93% 30.27 in - West 4.6 mph - N/A   Clear
10:50 AM 44.6 °F 42.2 °F 42.8 °F 93% 30.27 in 6.2 mi West 4.6 mph - N/A   Partly Cloudy
11:50 AM 46.4 °F 42.9 °F 41.0 °F 81% 30.27 in - WNW 6.9 mph - N/A   Clear
12:50 PM 48.2 °F - 39.2 °F 71% 30.27 in - NW 6.9 mph - N/A   Clear
1:20 PM 48.2 °F - 37.4 °F 66% 30.27 in - NW 9.2 mph - N/A   Clear
1:50 PM 48.2 °F - 39.2 °F 71% 30.27 in 6.2 mi NW 8.1 mph - N/A   Partly Cloudy
2:20 PM 48.2 °F - 37.4 °F 66% 30.27 in 6.2 mi NW 8.1 mph - N/A   Partly Cloudy
2:50 PM 48.2 °F - 37.4 °F 66% 30.24 in - WNW 3.5 mph - N/A   Clear
3:20 PM 46.4 °F 43.5 °F 37.4 °F 71% 30.24 in - NNW 5.8 mph - N/A   Clear
3:50 PM 46.4 °F 45.2 °F 37.4 °F 71% 30.24 in - NW 3.5 mph - N/A   Clear
4:20 PM 44.6 °F - 37.4 °F 76% 30.24 in - West 1.2 mph - N/A   Clear
4:50 PM 41.0 °F - 35.6 °F 81% 30.24 in - Calm Calm - N/A   Clear
5:20 PM 37.4 °F - 33.8 °F 87% 30.24 in - East 1.2 mph - N/A   Clear
5:50 PM 35.6 °F - 33.8 °F 93% 30.24 in - East 1.2 mph - N/A   Clear
6:20 PM 35.6 °F - 33.8 °F 93% 30.24 in - East 1.2 mph - N/A   Clear
6:50 PM 35.6 °F - 32.0 °F 87% 30.21 in - Calm Calm - N/A   Clear
7:20 PM 33.8 °F - 32.0 °F 93% 30.21 in - East 2.3 mph - N/A   Clear
7:50 PM 33.8 °F - 32.0 °F 93% 30.21 in - ESE 2.3 mph - N/A   Clear
8:20 PM 32.0 °F - 30.2 °F 93% 30.21 in - East 2.3 mph - N/A   Clear
8:50 PM 32.0 °F - 32.0 °F 100% 30.21 in - East 2.3 mph - N/A   Clear
9:20 PM 33.8 °F - 32.0 °F 93% 30.21 in 6.2 mi Calm Calm - N/A Fog Shallow Fog
9:50 PM 32.0 °F - 30.2 °F 93% 30.18 in 6.2 mi Calm Calm - N/A Fog Shallow Fog
10:20 PM 32.0 °F - 30.2 °F 93% 30.18 in 6.2 mi East 1.2 mph - N/A Fog Shallow Fog
10:50 PM 33.8 °F - 33.8 °F 100% 30.18 in 6.2 mi SE 2.3 mph - N/A Fog Shallow Fog
11:20 PM 33.8 °F - 32.0 °F 93% 30.18 in 6.2 mi ESE 1.2 mph - N/A Fog Shallow Fog
11:50 PM 35.6 °F 31.7 °F 33.8 °F 93% 30.15 in 6.2 mi ESE 4.6 mph - N/A Fog Shallow Fog